Home > Weather > Acharnes > Past weeks

Flag for Greece Past Weather in Acharnes, Greece — Yesterday and Last 2 Weeks

Now
81 °F

Passing clouds.


Feels Like: 81 °F
Forecast: 76 / 81 °F
Wind: 9 mph from Northwest

Location: Elefsis Airport

Current Time: Aug 25, 2016 at 2:26:08 AM

Latest Report: Aug 25, 2016 at 1:50 AM


Visibility: N/A

Pressure: 29.86 "Hg

Humidity: 48%

Dew Point: 59 °F

Location of AcharnesLocation

Past Weather in Acharnes — Graph

°F

Acharnes Temperature Yesterday

Maximum temperature yesterday: 88 °F (at 1:20 PM)
Minimum temperature yesterday: 75 °F (at 5:20 AM)
Average temperature yesterday: 81 °F

High & Low Weather Summary for the Past Weeks

 TemperatureHumidityPressure
High99 °F (Aug 11, 3:20 PM)70% (Aug 19, 11:50 PM)30.12 "Hg (Aug 19, 11:50 PM)
Low68 °F (Aug 14, 2:50 AM)14% (Aug 16, 4:50 PM)29.74 "Hg (Aug 18, 3:50 PM)
Average83 °F38%29.89 "Hg
* Reported Aug 10 12:20 AM — Aug 25 12:50 AM, Acharnes, Weather by CustomWeather, © 2016

Note: Actual official high and low records may vary slightly from our data, if they occured in-between our weather recording intervals... More about our weather records

Advertising

Acharnes Weather History for the Previous 24 Hours

Scroll right to see more
 ConditionsComfort  
Time TempWeatherWind HumidityBarometerVisibility
12:50 AM
Thu, Aug 25
81 °FPassing clouds.12 mph48%29.86 "HgN/A
12:20 AM81 °FPassing clouds.12 mph45%29.86 "HgN/A
11:50 PM
Wed, Aug 24
81 °FPassing clouds.12 mph48%29.86 "HgN/A
11:20 PM81 °FPassing clouds.12 mph48%29.86 "HgN/A
10:50 PM81 °FPassing clouds.9 mph48%29.89 "HgN/A
10:20 PM81 °FPassing clouds.7 mph48%29.89 "HgN/A
9:50 PM81 °FPassing clouds.9 mph45%29.86 "HgN/A
9:20 PM81 °FPassing clouds.7 mph45%29.86 "HgN/A
8:50 PM81 °FPartly sunny.12 mph45%29.86 "HgN/A
8:20 PM82 °FPartly sunny.12 mph42%29.86 "HgN/A
7:50 PM82 °FPartly sunny.13 mph42%29.86 "HgN/A
7:20 PM84 °FBroken clouds.12 mph40%29.86 "HgN/A
6:50 PM84 °FBroken clouds.12 mph40%29.83 "HgN/A
6:20 PM86 °FBroken clouds.14 mph38%29.86 "HgN/A
5:50 PM86 °FPartly sunny.15 mph40%29.83 "HgN/A
5:20 PM86 °FBroken clouds.12 mph40%29.86 "HgN/A
4:50 PM86 °FBroken clouds.13 mph40%29.86 "HgN/A
4:20 PM86 °FBroken clouds.14 mph40%29.86 "HgN/A
3:50 PM88 °FBroken clouds.14 mph38%29.86 "HgN/A
3:20 PM88 °FBroken clouds.16 mph38%29.86 "HgN/A
2:50 PM88 °FBroken clouds.16 mph38%29.86 "HgN/A
2:20 PM88 °FBroken clouds.15 mph38%29.86 "HgN/A
1:50 PM88 °FBroken clouds.14 mph38%29.86 "HgN/A
1:20 PM88 °FPartly sunny.13 mph40%29.89 "HgN/A
12:50 PM86 °FPartly sunny.12 mph43%29.89 "HgN/A
12:20 PM86 °FPartly sunny.12 mph43%29.89 "HgN/A
11:50 AM86 °FPartly sunny.13 mph43%29.89 "HgN/A
10:50 AM84 °FPartly sunny.13 mph45%29.92 "HgN/A
10:20 AM82 °FPartly sunny.13 mph48%29.92 "HgN/A
9:50 AM81 °FScattered clouds.14 mph51%29.92 "HgN/A
9:20 AM79 °FScattered clouds.13 mph54%29.92 "HgN/A
8:50 AM79 °FScattered clouds.12 mph54%29.92 "HgN/A
8:20 AM77 °FPassing clouds.15 mph57%29.92 "HgN/A
7:50 AM77 °FPassing clouds.12 mph57%29.92 "HgN/A
7:20 AM75 °FPassing clouds.13 mph61%29.89 "HgN/A
6:50 AM75 °FPassing clouds.14 mph61%29.89 "HgN/A
6:20 AM75 °FPassing clouds.14 mph61%29.89 "HgN/A
5:50 AM75 °FPassing clouds.12 mph61%29.89 "HgN/A
5:20 AM75 °FPassing clouds.12 mph61%29.89 "HgN/A
4:50 AM77 °FPassing clouds.12 mph57%29.89 "HgN/A
4:20 AM77 °FPassing clouds.14 mph57%29.89 "HgN/A
3:50 AM77 °FPassing clouds.14 mph61%29.89 "HgN/A
3:20 AM77 °FPassing clouds.14 mph61%29.89 "HgN/A
2:50 AM77 °FPassing clouds.12 mph61%29.92 "HgN/A
2:20 AM77 °FPassing clouds.15 mph61%29.92 "HgN/A
Weather by CustomWeather, © 2016

See weather overviewHow to use our weather pages